sat.trackr.live / text

‹ back to catalog

2024-105E

NORAD 59921 · 2024-105E

PAYLOAD ACTIVE UNKNOWN

§ Identity

Operator
Country
PRC
Launch date
2024-05-30
Launch site
JSC
Launch vehicle
Mass (kg)
RCS (m²)

External: N2YO · Heavens-Above · Gunter

§ Orbital elements

Epoch: 2026-05-25T08:12:39.334752Z

Period
94.96 min
Inclination
97.5805°
Eccentricity
0.0014287
Mean motion
15.16430288 rev/d
Perigee alt
506.8 km
Apogee alt
526.5 km
Semi-major
6,894.8 km
B*
3.7423e-6
RAAN
162.0834°
Arg perigee
267.9770°
Mean anomaly
91.9827°
Rev number
10,968

§ Raw data

2024-105E1 59921U 24105E   26145.34212193  .00000004  00000+0  37423-5 0  99982 59921  97.5805 162.0834 0014287 267.9770  91.9827 15.16430288109684

JSON: /api/v1/satellites/59921 · /tle

For live sub-satellite position, see the globe view (requires WebGL).

§ Visibility from observer

Set your observer location to see the next 7 days of passes ≥ 10°. The values pass through the URL so the page stays shareable.

No JS? Fill the form by hand. The geolocation button needs JavaScript.